EW5171 Weather Reports


Display with metric or nautical units.
time (UTC)temp
F
wind
direction
speed
MPH
gust
MPH
rain 1hr
in
rain 24hr
in
rain mn
in
humidity
%
barometer
mb
20260509122549 59 26 1.0 6.0 0.00 0.00 0.00 44 1023.3
20260509122049 59 86 3.0 7.0 0.00 0.00 0.00 44 1023.4
20260509121552 59 188 1.0 6.0 0.00 0.00 0.00 44 1023.4
20260509121049 59 174 2.0 6.0 0.00 0.00 0.00 45 1023.5
20260509120548 59 192 2.0 7.0 0.00 0.00 0.00 44 1023.5
20260509120047 59 11 2.0 7.0 0.00 0.00 0.00 43 1023.5
20260509115546 60 153 2.0 7.0 0.00 0.00 0.00 44 1023.5
20260509115046 59 113 2.0 6.0 0.00 0.00 0.00 43 1023.6
20260509114547 59 40 2.0 6.0 0.00 0.00 0.00 43 1023.6
20260509114045 59 28 2.0 8.0 0.00 0.00 0.00 44 1023.7
20260509113545 58 34 2.0 8.0 0.00 0.00 0.00 46 1023.7
20260509113050 59 142 2.0 7.0 0.00 0.00 0.00 47 1023.7
20260509112542 59 103 2.0 8.0 0.00 0.00 0.00 46 1023.9
20260509112042 59 44 3.0 8.0 0.00 0.00 0.00 45 1023.9
20260509111544 59 74 2.0 7.0 0.00 0.00 0.00 46 1024.0
20260509111043 59 14 2.0 5.0 0.00 0.00 0.00 47 1024.0
20260509110543 59 48 3.0 6.0 0.00 0.00 0.00 46 1024.0
20260509110040 59 94 1.0 5.0 0.00 0.00 0.00 46 1024.1
20260509105540 59 197 2.0 7.0 0.00 0.00 0.00 47 1024.1
20260509105039 59 93 2.0 7.0 0.00 0.00 0.00 47 1024.1
20260509104538 59 69 2.0 5.0 0.00 0.00 0.00 49 1024.1
20260509104037 58 37 1.0 7.0 0.00 0.00 0.00 53 1024.1
20260509103537 58 139 3.0 9.0 0.00 0.00 0.00 48 1024.2
20260509103035 58 203 2.0 9.0 0.00 0.00 0.00 48 1024.2
20260509102535 58 59 1.0 5.0 0.00 0.00 0.00 49 1024.3
20260509102035 58 164 2.0 6.0 0.00 0.00 0.00 49 1024.3
20260509101546 58 111 2.0 6.0 0.00 0.00 0.00 49 1024.3
20260509101033 58 81 1.0 7.0 0.00 0.00 0.00 52 1024.4
20260509100534 59 68 2.0 5.0 0.00 0.00 0.00 49 1024.4
20260509100032 58 5 1.0 4.0 0.00 0.00 0.00 48 1024.4
20260509095532 58 43 1.0 7.0 0.00 0.00 0.00 51 1024.5
20260509095031 57 20 2.0 7.0 0.00 0.00 0.00 51 1024.5
20260509094531 58 19 2.0 6.0 0.00 0.00 0.00 53 1024.5
20260509094030 58 189 2.0 6.0 0.00 0.00 0.00 53 1024.5
20260509093529 58 23 2.0 5.0 0.00 0.00 0.00 53 1024.4
20260509093028 57 333 2.0 6.0 0.00 0.00 0.00 51 1024.4
20260509092527 57 360 2.0 6.0 0.00 0.00 0.00 49 1024.4
20260509092028 57 205 2.0 6.0 0.00 0.00 0.00 51 1024.4
20260509091527 57 55 1.0 6.0 0.00 0.00 0.00 52 1024.3
20260509091026 57 173 2.0 6.0 0.00 0.00 0.00 50 1024.3
20260509090528 57 74 1.0 6.0 0.00 0.00 0.00 51 1024.3
20260509090026 57 92 2.0 5.0 0.00 0.00 0.00 52 1024.3
20260509085523 57 138 1.0 6.0 0.00 0.00 0.00 52 1024.3
20260509085021 56 80 2.0 7.0 0.00 0.00 0.00 54 1024.3
20260509084521 56 194 2.0 6.0 0.00 0.00 0.00 54 1024.4
20260509084021 56 123 2.0 8.0 0.00 0.00 0.00 54 1024.5
20260509083519 56 103 2.0 7.0 0.00 0.00 0.00 52 1024.5
20260509083021 56 95 1.0 7.0 0.00 0.00 0.00 52 1024.6
20260509082518 56 55 1.0 7.0 0.00 0.00 0.00 55 1024.5
20260509082017 55 65 2.0 7.0 0.00 0.00 0.00 54 1024.5
20260509081517 55 200 3.0 6.0 0.00 0.00 0.00 55 1024.6
20260509081019 55 158 2.0 6.0 0.00 0.00 0.00 54 1024.5
20260509080514 55 196 2.0 6.0 0.00 0.00 0.00 53 1024.4
20260509080012 55 171 2.0 8.0 0.00 0.00 0.00 54 1024.5
20260509075512 55 115 2.0 8.0 0.00 0.00 0.00 51 1024.4
20260509075012 55 192 1.0 6.0 0.00 0.00 0.00 56 1024.4
20260509074509 54 34 2.0 6.0 0.00 0.00 0.00 55 1024.3
20260509074008 54 217 3.0 6.0 0.00 0.00 0.00 55 1024.3
20260509073507 54 153 0.0 5.0 0.00 0.00 0.00 55 1024.5
20260509073009 54 193 2.0 5.0 0.00 0.00 0.00 54 1024.5
20260509072506 54 69 1.0 5.0 0.00 0.00 0.00 57 1024.5
20260509072005 53 205 2.0 7.0 0.00 0.00 0.00 55 1024.5
20260509071504 53 192 3.0 7.0 0.00 0.00 0.00 55 1024.5
20260509071003 54 200 3.0 5.0 0.00 0.00 0.00 56 1024.6
20260509070504 53 69 1.0 4.0 0.00 0.00 0.00 56 1024.5
20260509070101 53 146 1.0 10.0 0.00 0.00 0.00 55 1024.5
20260509065604 53 193 1.0 10.0 0.00 0.00 0.00 57 1024.6
20260509065200 53 107 1.0 5.0 0.00 0.00 0.00 57 1024.6
20260509064617 53 154 2.0 5.0 0.00 0.00 0.00 55 1024.5
20260509064058 54 276 1.0 6.0 0.00 0.00 0.00 57 1024.5
20260509063555 53 128 1.0 5.0 0.00 0.00 0.00 58 1024.5
20260509063054 53 152 1.0 7.0 0.00 0.00 0.00 58 1024.5
20260509062554 52 180 2.0 7.0 0.00 0.00 0.00 60 1024.4
20260509062051 52 192 3.0 4.0 0.00 0.00 0.00 59 1024.4
20260509061559 52 182 2.0 5.0 0.00 0.00 0.00 59 1024.3
20260509061048 52 119 1.0 5.0 0.00 0.00 0.00 60 1024.3
20260509060547 51 188 1.0 5.0 0.00 0.00 0.00 62 1024.4
20260509060047 50 184 0.0 5.0 0.00 0.00 0.00 65 1024.3
20260509055544 50 208 1.0 5.0 0.00 0.00 0.00 66 1024.4
20260509055042 49 188 1.0 5.0 0.00 0.00 0.00 70 1024.4
20260509054541 48 117 1.0 5.0 0.00 0.00 0.00 74 1024.4
20260509054040 46 237 1.0 3.0 0.00 0.00 0.00 79 1024.4
20260509053538 44 153 1.0 3.0 0.00 0.00 0.00 86 1024.4
20260509053037 42 182 1.0 3.0 0.00 0.00 0.00 90 1024.5
20260509052534 40 182 0.0 3.0 0.00 0.00 0.00 90 1024.4
20260509052034 40 191 0.0 0.0 0.00 0.00 0.00 91 1024.4
20260509051537 39 191 0.0 0.0 0.00 0.00 0.00 91 1024.4
20260509051034 38 191 0.0 0.0 0.00 0.00 0.00 91 1024.4
20260509050534 37 191 0.0 0.0 0.00 0.00 0.00 91 1024.3
20260509050035 37 191 0.0 0.0 0.00 0.00 0.00 91 1024.4
20260509045532 36 191 0.0 0.0 0.00 0.00 0.00 91 1024.4
20260509045033 36 191 0.0 0.0 0.00 0.00 0.00 90 1024.4
20260509044533 35 191 0.0 0.0 0.00 0.00 0.00 90 1024.4
20260509044031 35 191 0.0 0.0 0.00 0.00 0.00 90 1024.3
20260509043530 35 191 0.0 0.0 0.00 0.00 0.00 89 1024.4
20260509043029 34 191 0.0 1.0 0.00 0.00 0.00 89 1024.4
20260509042529 34 191 0.0 1.0 0.00 0.00 0.00 89 1024.4
20260509042028 34 191 0.0 1.0 0.00 0.00 0.00 89 1024.5
20260509041527 34 191 0.0 1.0 0.00 0.00 0.00 89 1024.5
20260509041028 34 191 0.0 1.0 0.00 0.00 0.00 89 1024.5
20260509040528 34 191 0.0 0.0 0.00 0.00 0.00 88 1024.5
20260509040025 34 191 0.0 1.0 0.00 0.00 0.00 88 1024.5
20260509035528 34 191 0.0 1.0 0.00 0.00 0.00 88 1024.6
20260509035026 35 191 0.0 1.0 0.00 0.00 0.00 87 1024.6
20260509034538 35 191 0.0 1.0 0.00 0.00 0.00 87 1024.6
20260509034024 35 191 0.0 1.0 0.00 0.00 0.00 87 1024.6
20260509033520 35 191 0.0 1.0 0.00 0.00 0.00 87 1024.6
20260509033019 35 191 0.0 1.0 0.00 0.00 0.00 87 1024.6
20260509032518 35 191 0.0 1.0 0.00 0.00 0.00 87 1024.6
20260509032020 36 191 0.0 1.0 0.00 0.00 0.00 86 1024.6
20260509031516 36 191 0.0 1.0 0.00 0.00 0.00 86 1024.6
20260509031015 36 191 0.0 1.0 0.00 0.00 0.00 85 1024.6
20260509030515 36 191 0.0 1.0 0.00 0.00 0.00 85 1024.6
20260509030019 37 191 0.0 1.0 0.00 0.00 0.00 84 1024.6
20260509025514 37 191 0.0 2.0 0.00 0.00 0.00 84 1024.6
20260509025010 38 191 0.0 2.0 0.00 0.00 0.00 83 1024.6
20260509024510 38 191 0.0 1.0 0.00 0.00 0.00 83 1024.6
20260509024011 38 191 0.0 1.0 0.00 0.00 0.00 83 1024.7
20260509023509 39 191 0.0 1.0 0.00 0.00 0.00 82 1024.7
20260509023008 39 191 0.0 1.0 0.00 0.00 0.00 82 1024.8
20260509022507 39 191 0.0 1.0 0.00 0.00 0.00 81 1024.8
20260509022008 40 191 0.0 1.0 0.00 0.00 0.00 79 1024.8
20260509021508 40 191 0.0 1.0 0.00 0.00 0.00 78 1024.8
20260509021010 41 191 0.0 2.0 0.00 0.00 0.00 78 1024.8
20260509020512 41 191 0.0 2.0 0.00 0.00 0.00 77 1024.9
20260509020006 42 191 0.0 4.0 0.00 0.00 0.00 78 1024.8
20260509015507 41 164 1.0 4.0 0.00 0.00 0.00 80 1024.8
20260509015006 41 168 0.0 3.0 0.00 0.00 0.00 81 1024.8
20260509014504 40 223 0.0 3.0 0.00 0.00 0.00 83 1024.9
20260509014004 40 206 0.0 3.0 0.00 0.00 0.00 83 1024.9
20260509013503 39 206 0.0 3.0 0.00 0.00 0.00 85 1024.9
20260509013003 39 213 0.0 2.0 0.00 0.00 0.00 87 1024.9
20260509012504 38 195 0.0 2.0 0.00 0.00 0.00 87 1024.9
20260509012002 38 196 0.0 2.0 0.00 0.00 0.00 87 1024.9
20260509011502 38 196 0.0 2.0 0.00 0.00 0.00 87 1025.0
20260509011002 38 196 0.0 2.0 0.00 0.00 0.00 88 1025.0
20260509010502 38 196 0.0 2.0 0.00 0.00 0.00 87 1025.0
20260509010107 38 196 0.0 2.0 0.00 0.00 0.00 88 1025.0
20260509005603 38 196 0.0 2.0 0.00 0.00 0.00 88 1025.0
20260509005059 38 196 0.0 2.0 0.00 0.00 0.00 88 1025.0
20260509004622 38 196 0.0 1.0 0.00 0.00 0.00 88 1025.0
20260509004058 38 196 0.0 1.0 0.00 0.00 0.00 88 1025.0
20260509003602 38 196 0.0 1.0 0.00 0.00 0.00 88 1025.1
20260509003057 38 196 0.0 0.0 0.00 0.00 0.00 88 1025.1
20260509002556 38 196 0.0 0.0 0.00 0.00 0.00 88 1025.1
20260509002056 38 196 0.0 1.0 0.00 0.00 0.00 87 1025.1
20260509001557 38 196 0.0 1.0 0.00 0.00 0.00 87 1025.1
20260509001055 38 196 0.0 0.0 0.00 0.00 0.00 87 1025.1
20260509000554 39 196 0.0 0.0 0.00 0.00 0.00 87 1025.1
20260509000054 39 196 0.0 0.0 0.00 0.00 0.00 87 1025.1
20260508235553 39 196 0.0 0.0 0.00 0.00 0.00 87 1025.0
20260508235055 39 196 0.0 0.0 0.00 0.00 0.00 87 1025.0
20260508234552 39 196 0.0 0.0 0.00 0.00 0.00 87 1025.1
20260508234054 39 196 0.0 0.0 0.00 0.00 0.00 87 1025.0
20260508233554 40 196 0.0 0.0 0.00 0.00 0.00 87 1025.1
20260508233050 40 196 0.0 0.0 0.00 0.00 0.00 87 1025.0
20260508232549 40 196 0.0 0.0 0.00 0.00 0.00 87 1025.1
20260508232050 40 196 0.0 0.0 0.00 0.00 0.00 87 1025.1
20260508231547 40 196 0.0 0.0 0.00 0.00 0.00 87 1025.1
20260508231047 40 196 0.0 0.0 0.00 0.00 0.00 87 1025.1
20260508230547 40 196 0.0 0.0 0.00 0.00 0.00 87 1025.1
20260508230051 40 196 0.0 0.0 0.00 0.00 0.00 87 1025.0
20260508225546 40 196 0.0 0.0 0.00 0.00 0.00 87 1025.1
20260508225045 41 196 0.0 0.0 0.00 0.00 0.00 86 1025.0
20260508224550 41 196 0.0 0.0 0.00 0.00 0.00 86 1025.0
20260508224043 41 196 0.0 0.0 0.00 0.00 0.00 86 1025.0
20260508223543 41 196 0.0 0.0 0.00 0.00 0.00 86 1025.1
20260508223048 41 196 0.0 0.0 0.00 0.00 0.00 85 1025.0
20260508222540 42 196 0.0 0.0 0.00 0.00 0.00 85 1025.0
20260508222040 42 196 0.0 0.0 0.00 0.00 0.00 85 1024.9
20260508221539 42 196 0.0 0.0 0.00 0.00 0.00 85 1024.9
20260508221039 42 196 0.0 1.0 0.00 0.00 0.00 85 1024.9
20260508220539 42 195 0.0 1.0 0.00 0.00 0.00 85 1024.9
20260508220037 42 196 0.0 1.0 0.00 0.00 0.00 86 1024.9
20260508215537 42 196 0.0 4.0 0.00 0.00 0.00 86 1024.9
20260508215037 42 196 1.0 4.0 0.00 0.00 0.00 87 1024.8
20260508214552 42 195 0.0 1.0 0.00 0.00 0.00 86 1024.8
20260508214038 42 195 0.0 0.0 0.00 0.00 0.00 86 1024.8
20260508213536 42 195 0.0 0.0 0.00 0.00 0.00 86 1024.8
20260508213035 42 195 0.0 0.0 0.00 0.00 0.00 86 1024.8
20260508212535 42 195 0.0 0.0 0.00 0.00 0.00 86 1024.8
20260508212036 43 195 0.0 0.0 0.00 0.00 0.00 86 1024.7
20260508211534 43 195 0.0 0.0 0.00 0.00 0.00 86 1024.6
20260508211034 43 195 0.0 0.0 0.00 0.00 0.00 85 1024.7
20260508210534 43 195 0.0 0.0 0.00 0.00 0.00 85 1024.7
20260508210037 43 195 0.0 0.0 0.00 0.00 0.00 85 1024.6
20260508205533 44 195 0.0 0.0 0.00 0.00 0.00 85 1024.6
20260508205033 44 195 0.0 0.0 0.00 0.00 0.00 84 1024.5
20260508204536 44 195 0.0 0.0 0.00 0.00 0.00 84 1024.5
20260508204032 44 195 0.0 0.0 0.00 0.00 0.00 84 1024.5
20260508203532 45 195 0.0 0.0 0.00 0.00 0.00 84 1024.5
20260508203031 45 195 0.0 0.0 0.00 0.00 0.00 84 1024.4
20260508202530 45 195 0.0 0.0 0.00 0.00 0.00 83 1024.4
20260508202030 45 195 0.0 0.0 0.00 0.00 0.00 83 1024.3
20260508201531 46 195 0.0 0.0 0.00 0.00 0.00 83 1024.2
20260508201029 46 195 0.0 0.0 0.00 0.00 0.00 82 1024.2
20260508200529 47 195 0.0 0.0 0.00 0.00 0.00 81 1024.1
20260508200030 47 195 0.0 0.0 0.00 0.00 0.00 81 1024.1
20260508195528 47 195 0.0 0.0 0.00 0.00 0.00 80 1024.1
20260508195028 48 195 0.0 0.0 0.00 0.00 0.00 80 1024.1
20260508194528 48 195 0.0 0.0 0.00 0.00 0.00 79 1024.1
20260508194027 49 195 0.0 0.0 0.00 0.00 0.00 78 1024.1
20260508193527 49 195 0.0 0.0 0.00 0.00 0.00 77 1024.0
20260508193030 49 195 0.0 0.0 0.00 0.00 0.00 76 1024.0
20260508192526 50 195 0.0 0.0 0.00 0.00 0.00 76 1023.9
20260508192027 51 195 0.0 0.0 0.00 0.00 0.00 75 1023.9
20260508191527 51 195 0.0 0.0 0.00 0.00 0.00 74 1023.8
20260508191024 52 195 0.0 0.0 0.00 0.00 0.00 73 1023.8
20260508190527 53 195 0.0 0.0 0.00 0.00 0.00 72 1023.8
20260508190044 53 195 0.0 1.0 0.00 0.00 0.00 72 1023.7
20260508185527 54 195 0.0 2.0 0.00 0.00 0.00 71 1023.6
20260508185023 54 195 0.0 3.0 0.00 0.00 0.00 71 1023.5
20260508184531 54 195 0.0 3.0 0.00 0.00 0.00 71 1023.5
20260508184027 54 195 0.0 3.0 0.00 0.00 0.00 72 1023.5
20260508183523 54 195 0.0 3.0 0.00 0.00 0.00 71 1023.4
20260508183034 54 177 1.0 3.0 0.00 0.00 0.00 70 1023.5
20260508182523 54 184 0.0 4.0 0.00 0.00 0.00 70 1023.5
20260508182022 54 184 2.0 4.0 0.00 0.00 0.00 70 1023.5
20260508181522 55 187 1.0 5.0 0.00 0.00 0.00 70 1023.4
20260508181022 55 207 1.0 5.0 0.00 0.00 0.00 69 1023.4
20260508180522 55 203 1.0 5.0 0.00 0.00 0.00 69 1023.4
20260508180022 55 170 2.0 5.0 0.00 0.00 0.00 68 1023.3
20260508175522 55 181 2.0 4.0 0.00 0.00 0.00 68 1023.3
20260508175022 56 217 1.0 6.0 0.00 0.00 0.00 66 1023.2
20260508174521 56 162 1.0 7.0 0.00 0.00 0.00 64 1023.1
20260508174021 56 194 1.0 5.0 0.00 0.00 0.00 63 1023.2
20260508173521 56 173 2.0 6.0 0.00 0.00 0.00 62 1023.2
20260508173022 56 186 1.0 8.0 0.00 0.00 0.00 61 1023.1
20260508172524 57 220 1.0 5.0 0.00 0.00 0.00 61 1023.2
20260508172020 57 175 2.0 4.0 0.00 0.00 0.00 60 1023.2
20260508171520 57 180 1.0 5.0 0.00 0.00 0.00 58 1023.2
20260508171019 57 223 1.0 7.0 0.00 0.00 0.00 56 1023.1
20260508170621 57 192 3.0 7.0 0.00 0.00 0.00 55 1023.1
20260508170030 58 192 2.0 6.0 0.00 0.00 0.00 54 1023.1
20260508165519 58 202 2.0 4.0 0.00 0.00 0.00 55 1023.2
20260508165021 59 154 1.0 4.0 0.00 0.00 0.00 54 1023.1
20260508164524 59 182 2.0 6.0 0.00 0.00 0.00 52 1023.1
20260508164019 59 203 3.0 6.0 0.00 0.00 0.00 51 1023.0
20260508163518 59 199 2.0 7.0 0.00 0.00 0.00 50 1023.1
20260508163020 60 79 1.0 3.0 0.00 0.00 0.00 50 1023.0
20260508162518 59 177 0.0 5.0 0.00 0.00 0.00 50 1023.0
20260508162018 59 164 3.0 5.0 0.00 0.00 0.00 50 1023.0
20260508161518 59 196 1.0 5.0 0.00 0.00 0.00 51 1023.0
20260508161018 58 231 2.0 8.0 0.00 0.00 0.00 50 1023.0
20260508160517 59 202 4.0 8.0 0.00 0.00 0.00 46 1023.1
20260508160019 59 157 3.0 7.0 0.00 0.00 0.00 47 1023.1
20260508155519 60 194 2.0 6.0 0.00 0.00 0.00 48 1023.1
20260508155017 60 188 2.0 6.0 0.00 0.00 0.00 47 1023.1
20260508154517 60 157 2.0 7.0 0.00 0.00 0.00 48 1023.1
20260508154016 60 193 4.0 7.0 0.00 0.00 0.00 48 1023.0
20260508153517 60 76 1.0 6.0 0.00 0.00 0.00 48 1023.1
20260508153028 60 154 2.0 6.0 0.00 0.00 0.00 48 1023.1
20260508152519 60 198 2.0 4.0 0.00 0.00 0.00 47 1023.0
20260508152016 61 211 2.0 6.0 0.00 0.00 0.00 46 1023.0
20260508151516 61 154 1.0 6.0 0.00 0.00 0.00 45 1023.1
20260508151016 61 167 2.0 6.0 0.00 0.00 0.00 43 1023.1
20260508150517 60 90 2.0 6.0 0.00 0.00 0.00 45 1023.1
20260508150016 60 136 2.0 7.0 0.00 0.00 0.00 45 1023.1
20260508145514 61 195 2.0 6.0 0.00 0.00 0.00 45 1023.2
20260508145014 60 175 3.0 6.0 0.00 0.00 0.00 42 1023.2
20260508144524 60 235 3.0 9.0 0.00 0.00 0.00 42 1023.2
20260508144013 62 209 3.0 9.0 0.00 0.00 0.00 46 1023.3
20260508143512 62 99 1.0 6.0 0.00 0.00 0.00 46 1023.3
20260508143011 62 173 1.0 6.0 0.00 0.00 0.00 48 1023.3
20260508142510 62 155 1.0 6.0 0.00 0.00 0.00 50 1023.4
20260508142015 61 183 1.0 6.0 0.00 0.00 0.00 51 1023.4
20260508141512 61 97 1.0 5.0 0.00 0.00 0.00 49 1023.4
20260508141009 61 181 2.0 7.0 0.00 0.00 0.00 50 1023.4
20260508140509 61 194 2.0 7.0 0.00 0.00 0.00 51 1023.4
20260508140019 61 180 1.0 8.0 0.00 0.00 0.00 51 1023.4
20260508135510 61 157 1.0 8.0 0.00 0.00 0.00 51 1023.4
20260508135010 61 150 2.0 5.0 0.00 0.00 0.00 50 1023.5
20260508134508 60 219 2.0 7.0 0.00 0.00 0.00 50 1023.5
20260508134007 60 123 2.0 9.0 0.00 0.00 0.00 51 1023.5
20260508133507 60 202 3.0 9.0 0.00 0.00 0.00 54 1023.5
20260508133006 61 192 3.0 7.0 0.00 0.00 0.00 60 1023.6
20260508132508 62 50 1.0 6.0 0.00 0.00 0.00 62 1023.6
20260508132004 61 121 3.0 6.0 0.00 0.00 0.00 64 1023.6
20260508131503 61 117 2.0 7.0 0.00 0.00 0.00 66 1023.7
20260508131004 60 83 1.0 6.0 0.00 0.00 0.00 66 1023.7
20260508130503 60 118 2.0 6.0 0.00 0.00 0.00 66 1023.7
20260508130001 61 71 1.0 6.0 0.00 0.00 0.00 67 1023.7
20260508125600 60 16 1.0 6.0 0.00 0.00 0.00 67 1023.7
20260508125058 60 124 2.0 6.0 0.00 0.00 0.00 68 1023.7
20260508124558 59 135 1.0 5.0 0.00 0.00 0.00 71 1023.7
20260508124057 59 117 2.0 5.0 0.00 0.00 0.00 69 1023.7
20260508123557 59 101 3.0 6.0 0.00 0.00 0.00 68 1023.7
20260508123114 59 60 2.0 7.0 0.00 0.00 0.00 69 1023.7